GEFSGL_prec_meanprecacc_252.txt.gz
Total_Precipitation_Accumulation
1.05 1.07 0.95 0.91 0.90 0.87 0.86 0.89 0.97 1.03 1.13 1.17 1.21 1.24 1.26 1.35 1.40 1.50 1.64 1.79 1.82 1.83 1.72 1.76 1.88 1.94 2.12 2.17 2.15 2.11 2.08 1.99 1.84 1.74 1.49 1.27 1.26 1.33 1.41 1.33 1.36 1.36 1.20
1.13 1.05 0.97 1.01 1.01 1.02 0.98 0.92 0.95 0.99 0.99 1.07 1.18 1.15 1.15 1.19 1.27 1.38 1.47 1.54 1.64 1.61 1.51 1.53 1.64 1.71 1.85 1.97 2.08 1.99 2.00 1.96 1.94 1.87 1.64 1.43 1.37 1.37 1.45 1.41 1.30 1.28 1.26
1.14 1.14 1.03 0.94 0.95 0.98 0.97 0.89 0.85 0.88 0.91 1.02 1.15 1.27 1.18 1.08 1.17 1.26 1.30 1.33 1.35 1.30 1.29 1.34 1.40 1.47 1.60 1.72 1.82 1.91 1.93 1.86 1.95 1.92 1.71 1.52 1.39 1.34 1.38 1.35 1.31 1.36 1.26
1.21 1.16 1.10 1.03 1.04 0.96 0.87 0.83 0.82 0.78 0.73 0.79 0.93 1.05 1.10 1.06 1.02 1.03 1.06 1.22 1.22 1.14 1.05 1.04 1.07 1.11 1.24 1.38 1.49 1.64 1.80 1.92 2.00 2.01 1.85 1.60 1.42 1.36 1.41 1.46 1.46 1.40 1.40
1.28 1.26 1.17 1.09 1.00 0.91 0.82 0.73 0.73 0.64 0.62 0.69 0.84 1.00 1.05 1.04 1.06 1.06 1.00 1.04 1.10 1.12 1.06 0.94 0.87 0.87 0.97 1.06 1.16 1.42 1.63 1.79 1.94 2.00 1.91 1.73 1.55 1.46 1.40 1.40 1.49 1.59 1.60
1.08 1.11 1.17 1.13 0.96 0.85 0.75 0.66 0.64 0.62 0.61 0.61 0.69 0.84 0.98 0.94 1.10 1.14 1.06 0.98 0.99 1.00 1.00 0.99 0.97 0.92 0.80 0.77 0.84 1.01 1.25 1.47 1.66 1.78 1.82 1.67 1.50 1.45 1.49 1.49 1.49 1.56 1.62
0.91 0.94 0.99 0.99 0.84 0.77 0.66 0.59 0.57 0.57 0.58 0.57 0.64 0.76 0.89 1.03 1.06 0.93 0.99 1.00 0.97 0.98 0.95 0.95 0.98 0.96 1.01 0.90 0.85 0.83 0.87 1.05 1.30 1.52 1.55 1.51 1.56 1.48 1.44 1.39 1.37 1.37 1.39
0.75 0.77 0.77 0.79 0.74 0.67 0.57 0.54 0.54 0.56 0.59 0.59 0.60 0.65 0.73 0.92 0.97 0.85 1.02 1.04 1.05 1.04 1.02 1.02 1.07 1.09 1.04 1.16 1.13 1.03 0.96 0.95 1.05 1.00 1.11 1.40 1.51 1.52 1.51 1.52 1.55 1.46 1.39
0.54 0.62 0.66 0.68 0.65 0.60 0.54 0.60 0.64 0.61 0.60 0.58 0.55 0.56 0.59 0.68 0.78 0.74 0.87 1.00 1.11 1.11 0.99 0.98 1.04 1.06 1.25 1.30 1.20 1.17 1.09 1.04 1.18 1.20 1.22 1.29 1.37 1.36 1.36 1.44 1.51 1.46 1.40
0.37 0.45 0.52 0.59 0.61 0.63 0.73 0.80 0.80 0.76 0.67 0.59 0.54 0.53 0.54 0.56 0.69 0.58 0.68 0.85 1.02 1.15 1.08 1.01 1.16 1.12 1.12 1.08 1.04 1.22 1.19 1.08 0.99 0.96 0.98 1.04 1.06 1.12 1.19 1.21 1.36 1.39 1.33
0.23 0.29 0.40 0.56 0.64 0.71 0.83 0.86 0.83 0.76 0.65 0.58 0.55 0.51 0.49 0.57 0.71 0.66 0.72 0.80 0.94 1.04 1.07 1.07 1.03 1.11 0.94 0.90 0.95 1.08 1.23 1.18 1.12 1.14 1.07 1.01 0.99 0.99 0.95 1.01 1.15 1.25 1.28
0.25 0.26 0.34 0.45 0.58 0.72 0.81 0.79 0.78 0.79 0.71 0.62 0.61 0.58 0.58 0.66 0.72 0.72 0.74 0.79 0.87 0.94 0.94 0.84 0.83 0.92 0.78 0.74 0.73 0.85 1.03 1.06 1.05 1.11 1.08 1.01 0.95 0.92 0.89 0.90 0.98 1.07 1.10
0.25 0.21 0.23 0.32 0.46 0.64 0.72 0.73 0.74 0.76 0.73 0.69 0.64 0.60 0.61 0.66 0.75 0.85 0.74 0.66 0.64 0.72 0.76 0.76 0.69 0.66 0.65 0.60 0.63 0.73 0.79 0.92 1.04 1.07 0.97 0.89 0.90 0.93 0.93 0.92 0.89 0.93 0.97
0.22 0.22 0.21 0.21 0.27 0.36 0.44 0.50 0.58 0.63 0.63 0.63 0.63 0.63 0.64 0.64 0.61 0.67 0.67 0.63 0.57 0.56 0.55 0.49 0.47 0.50 0.55 0.57 0.57 0.58 0.64 0.86 1.04 1.02 0.93 0.87 0.88 0.92 1.00 1.03 1.00 0.95 0.95
0.22 0.24 0.24 0.25 0.28 0.29 0.32 0.35 0.39 0.43 0.51 0.58 0.57 0.60 0.58 0.59 0.59 0.63 0.63 0.62 0.66 0.69 0.70 0.59 0.53 0.51 0.52 0.55 0.57 0.61 0.73 0.84 0.96 0.91 0.91 0.88 0.88 0.95 1.00 1.04 1.12 1.09 1.01
0.20 0.21 0.20 0.21 0.24 0.25 0.27 0.29 0.32 0.32 0.39 0.43 0.43 0.43 0.41 0.47 0.55 0.54 0.55 0.56 0.60 0.68 0.73 0.71 0.70 0.69 0.67 0.66 0.66 0.63 0.64 0.72 0.80 0.87 0.88 0.88 0.88 0.89 0.91 0.95 1.02 1.07 1.05
0.19 0.19 0.19 0.18 0.21 0.24 0.24 0.26 0.29 0.28 0.26 0.26 0.30 0.33 0.33 0.36 0.37 0.41 0.46 0.52 0.55 0.62 0.65 0.66 0.66 0.64 0.63 0.62 0.61 0.60 0.59 0.60 0.68 0.77 0.88 0.94 0.96 0.96 0.95 0.92 0.91 0.93 0.91
0.21 0.23 0.22 0.23 0.24 0.23 0.24 0.28 0.31 0.32 0.28 0.22 0.23 0.27 0.29 0.33 0.33 0.33 0.35 0.39 0.39 0.42 0.49 0.56 0.57 0.56 0.55 0.55 0.53 0.51 0.51 0.54 0.59 0.64 0.73 0.85 1.00 1.08 1.09 1.06 1.02 1.00 0.99
0.20 0.21 0.23 0.26 0.26 0.26 0.29 0.33 0.32 0.31 0.28 0.25 0.23 0.23 0.28 0.31 0.35 0.36 0.33 0.29 0.28 0.29 0.33 0.39 0.42 0.43 0.44 0.45 0.46 0.47 0.49 0.51 0.54 0.58 0.62 0.67 0.78 0.93 1.03 1.09 1.15 1.25 1.22
0.21 0.24 0.25 0.25 0.27 0.29 0.30 0.30 0.28 0.28 0.26 0.24 0.23 0.24 0.29 0.32 0.30 0.28 0.27 0.29 0.31 0.33 0.33 0.35 0.37 0.37 0.40 0.43 0.45 0.46 0.47 0.48 0.51 0.55 0.57 0.62 0.70 0.79 0.89 0.98 1.04 1.13 1.18
0.22 0.24 0.26 0.24 0.23 0.24 0.25 0.25 0.26 0.24 0.23 0.22 0.21 0.22 0.27 0.29 0.30 0.29 0.28 0.28 0.29 0.31 0.32 0.33 0.34 0.37 0.38 0.43 0.52 0.55 0.53 0.50 0.52 0.58 0.64 0.67 0.71 0.76 0.80 0.88 0.95 1.02 1.08
0.23 0.22 0.20 0.20 0.22 0.23 0.24 0.25 0.27 0.29 0.29 0.27 0.26 0.24 0.27 0.28 0.29 0.28 0.27 0.26 0.27 0.28 0.30 0.32 0.31 0.32 0.34 0.39 0.49 0.60 0.66 0.64 0.60 0.63 0.70 0.75 0.77 0.79 0.83 0.88 0.94 1.01 1.04
0.22 0.21 0.20 0.20 0.20 0.22 0.26 0.27 0.28 0.29 0.31 0.31 0.32 0.30 0.29 0.27 0.26 0.25 0.26 0.28 0.28 0.28 0.30 0.31 0.31 0.32 0.34 0.39 0.46 0.53 0.59 0.66 0.71 0.75 0.79 0.83 0.84 0.85 0.88 0.92 0.94 1.02 1.05
0.20 0.18 0.20 0.22 0.22 0.24 0.26 0.28 0.28 0.28 0.30 0.31 0.30 0.30 0.29 0.29 0.27 0.24 0.24 0.28 0.30 0.30 0.32 0.34 0.35 0.34 0.37 0.40 0.43 0.47 0.51 0.57 0.60 0.63 0.71 0.80 0.83 0.85 0.90 0.93 0.94 0.97 1.04
0.20 0.18 0.19 0.22 0.22 0.24 0.27 0.30 0.33 0.32 0.30 0.29 0.29 0.28 0.28 0.28 0.29 0.26 0.25 0.27 0.30 0.33 0.33 0.33 0.34 0.37 0.40 0.41 0.42 0.48 0.62 0.67 0.64 0.64 0.68 0.75 0.79 0.82 0.90 0.97 1.05 1.09 1.09
0.22 0.22 0.20 0.22 0.23 0.25 0.27 0.31 0.36 0.38 0.36 0.32 0.31 0.32 0.33 0.31 0.32 0.32 0.31 0.32 0.33 0.35 0.38 0.39 0.39 0.40 0.42 0.46 0.47 0.53 0.61 0.61 0.63 0.69 0.70 0.72 0.77 0.81 0.89 1.00 1.06 1.13 1.17

GEFSGL_prec_meanprecacc_258.txt.gz
Total_Precipitation_Accumulation
1.06 1.07 0.96 0.93 0.93 0.91 0.89 0.92 1.00 1.07 1.17 1.22 1.26 1.28 1.29 1.37 1.43 1.53 1.66 1.80 1.83 1.85 1.74 1.77 1.89 1.95 2.13 2.19 2.16 2.13 2.10 2.01 1.87 1.75 1.50 1.27 1.27 1.34 1.42 1.33 1.36 1.36 1.20
1.14 1.05 0.98 1.02 1.03 1.05 1.01 0.95 0.99 1.03 1.03 1.11 1.21 1.18 1.17 1.22 1.31 1.41 1.50 1.56 1.66 1.62 1.53 1.54 1.66 1.72 1.87 1.99 2.09 2.01 2.01 1.98 1.96 1.89 1.66 1.45 1.39 1.39 1.45 1.42 1.30 1.28 1.26
1.15 1.15 1.03 0.94 0.96 0.99 0.98 0.91 0.87 0.89 0.92 1.03 1.17 1.29 1.20 1.10 1.20 1.29 1.32 1.35 1.37 1.31 1.30 1.35 1.40 1.48 1.61 1.73 1.83 1.92 1.94 1.87 1.97 1.94 1.72 1.52 1.40 1.34 1.38 1.36 1.31 1.37 1.27
1.22 1.17 1.11 1.03 1.05 0.97 0.88 0.84 0.83 0.79 0.74 0.80 0.94 1.06 1.11 1.07 1.04 1.05 1.08 1.24 1.24 1.15 1.06 1.05 1.08 1.12 1.25 1.39 1.50 1.65 1.81 1.93 2.01 2.02 1.87 1.61 1.42 1.37 1.42 1.47 1.47 1.40 1.41
1.29 1.27 1.17 1.10 1.00 0.92 0.84 0.75 0.75 0.66 0.63 0.70 0.85 1.00 1.06 1.06 1.08 1.08 1.02 1.06 1.12 1.14 1.07 0.95 0.88 0.88 0.98 1.07 1.17 1.43 1.64 1.80 1.94 2.01 1.92 1.73 1.56 1.47 1.41 1.41 1.50 1.60 1.60
1.09 1.12 1.18 1.14 0.96 0.86 0.76 0.68 0.65 0.64 0.62 0.63 0.71 0.85 0.99 0.95 1.12 1.16 1.08 1.00 1.00 1.01 1.01 0.99 0.98 0.93 0.82 0.78 0.84 1.01 1.26 1.47 1.66 1.79 1.83 1.68 1.50 1.47 1.50 1.51 1.50 1.57 1.62
0.92 0.95 1.00 1.00 0.85 0.78 0.67 0.60 0.59 0.58 0.60 0.60 0.66 0.78 0.91 1.04 1.08 0.95 1.01 1.02 0.98 0.99 0.96 0.95 0.99 0.97 1.02 0.91 0.85 0.84 0.87 1.06 1.31 1.52 1.56 1.51 1.57 1.50 1.45 1.41 1.39 1.38 1.39
0.76 0.77 0.77 0.80 0.75 0.68 0.58 0.55 0.56 0.58 0.62 0.62 0.64 0.68 0.76 0.95 1.02 0.89 1.06 1.07 1.07 1.06 1.03 1.03 1.08 1.10 1.06 1.18 1.14 1.04 0.97 0.96 1.06 1.02 1.12 1.41 1.53 1.54 1.53 1.53 1.56 1.47 1.39
0.55 0.62 0.66 0.68 0.66 0.61 0.55 0.61 0.66 0.64 0.64 0.63 0.60 0.59 0.62 0.72 0.83 0.79 0.92 1.05 1.15 1.14 1.03 1.00 1.06 1.08 1.27 1.32 1.21 1.18 1.10 1.04 1.19 1.20 1.23 1.30 1.38 1.38 1.38 1.46 1.52 1.48 1.41
0.37 0.45 0.53 0.59 0.62 0.65 0.74 0.82 0.83 0.79 0.71 0.62 0.58 0.56 0.57 0.59 0.73 0.61 0.71 0.87 1.05 1.18 1.12 1.05 1.19 1.15 1.15 1.10 1.06 1.23 1.20 1.09 1.00 0.96 0.98 1.04 1.07 1.13 1.20 1.23 1.37 1.41 1.34
0.23 0.29 0.40 0.57 0.65 0.74 0.87 0.89 0.86 0.80 0.68 0.61 0.58 0.55 0.53 0.60 0.75 0.68 0.74 0.82 0.95 1.06 1.09 1.08 1.04 1.12 0.96 0.91 0.96 1.09 1.24 1.19 1.13 1.15 1.07 1.02 1.00 1.00 0.96 1.02 1.17 1.27 1.30
0.25 0.26 0.34 0.46 0.60 0.76 0.87 0.85 0.83 0.83 0.75 0.65 0.62 0.60 0.62 0.70 0.76 0.75 0.76 0.80 0.88 0.95 0.95 0.85 0.84 0.93 0.79 0.75 0.73 0.86 1.04 1.07 1.06 1.12 1.09 1.02 0.96 0.93 0.91 0.92 1.00 1.08 1.12
0.25 0.22 0.24 0.32 0.47 0.65 0.75 0.77 0.77 0.78 0.76 0.71 0.65 0.62 0.63 0.70 0.80 0.90 0.77 0.67 0.65 0.73 0.77 0.77 0.69 0.66 0.65 0.60 0.64 0.75 0.80 0.93 1.05 1.08 0.98 0.90 0.90 0.93 0.94 0.93 0.90 0.94 0.98
0.23 0.23 0.22 0.22 0.27 0.37 0.44 0.51 0.59 0.64 0.64 0.65 0.65 0.65 0.66 0.66 0.65 0.72 0.73 0.66 0.59 0.57 0.56 0.50 0.48 0.51 0.56 0.57 0.58 0.59 0.65 0.87 1.05 1.03 0.94 0.87 0.89 0.93 1.01 1.04 1.02 0.96 0.97
0.22 0.24 0.25 0.26 0.29 0.30 0.33 0.36 0.40 0.43 0.53 0.59 0.60 0.63 0.60 0.61 0.62 0.69 0.69 0.68 0.70 0.71 0.72 0.61 0.55 0.54 0.55 0.58 0.59 0.63 0.74 0.85 0.96 0.92 0.92 0.89 0.89 0.96 1.01 1.06 1.14 1.11 1.03
0.21 0.21 0.20 0.21 0.25 0.26 0.28 0.30 0.33 0.33 0.40 0.43 0.45 0.45 0.42 0.49 0.58 0.58 0.59 0.61 0.65 0.71 0.74 0.72 0.71 0.69 0.68 0.67 0.66 0.64 0.65 0.73 0.81 0.88 0.88 0.89 0.89 0.90 0.92 0.96 1.04 1.09 1.07
0.19 0.20 0.20 0.18 0.21 0.24 0.25 0.26 0.29 0.29 0.27 0.27 0.31 0.34 0.35 0.38 0.40 0.43 0.49 0.56 0.59 0.66 0.68 0.67 0.68 0.65 0.63 0.63 0.61 0.60 0.60 0.61 0.68 0.78 0.88 0.95 0.97 0.97 0.96 0.94 0.93 0.95 0.93
0.21 0.23 0.23 0.24 0.25 0.23 0.24 0.28 0.31 0.33 0.29 0.22 0.23 0.28 0.30 0.35 0.35 0.36 0.38 0.42 0.41 0.45 0.52 0.58 0.59 0.58 0.56 0.56 0.53 0.52 0.52 0.55 0.60 0.65 0.74 0.86 1.01 1.10 1.10 1.08 1.04 1.02 1.00
0.21 0.21 0.23 0.28 0.28 0.28 0.29 0.33 0.33 0.31 0.29 0.25 0.23 0.24 0.29 0.33 0.37 0.39 0.36 0.32 0.31 0.31 0.35 0.41 0.44 0.44 0.45 0.46 0.47 0.49 0.51 0.53 0.55 0.59 0.63 0.68 0.79 0.95 1.05 1.10 1.17 1.27 1.24
0.23 0.25 0.26 0.27 0.29 0.32 0.31 0.30 0.29 0.28 0.27 0.24 0.24 0.25 0.30 0.33 0.32 0.30 0.30 0.32 0.34 0.36 0.36 0.37 0.39 0.39 0.42 0.44 0.46 0.47 0.48 0.50 0.53 0.56 0.58 0.63 0.71 0.81 0.91 1.00 1.07 1.15 1.20
0.24 0.26 0.28 0.27 0.24 0.26 0.27 0.26 0.27 0.25 0.24 0.22 0.21 0.23 0.28 0.30 0.32 0.30 0.30 0.30 0.32 0.34 0.35 0.36 0.37 0.39 0.40 0.44 0.53 0.56 0.54 0.51 0.53 0.59 0.65 0.69 0.72 0.78 0.82 0.90 0.96 1.03 1.10
0.25 0.23 0.22 0.22 0.24 0.24 0.25 0.26 0.28 0.30 0.30 0.27 0.26 0.25 0.28 0.29 0.30 0.30 0.29 0.28 0.29 0.31 0.33 0.36 0.35 0.34 0.35 0.40 0.51 0.62 0.67 0.64 0.61 0.64 0.72 0.77 0.78 0.81 0.85 0.90 0.96 1.03 1.06
0.23 0.23 0.22 0.21 0.22 0.24 0.27 0.28 0.29 0.30 0.31 0.31 0.32 0.31 0.29 0.28 0.27 0.26 0.27 0.29 0.29 0.30 0.33 0.35 0.35 0.34 0.36 0.40 0.47 0.54 0.60 0.67 0.73 0.78 0.82 0.85 0.87 0.88 0.90 0.94 0.97 1.04 1.08
0.22 0.20 0.21 0.23 0.23 0.26 0.27 0.28 0.29 0.29 0.31 0.31 0.31 0.31 0.30 0.30 0.28 0.25 0.25 0.29 0.32 0.32 0.34 0.36 0.38 0.37 0.39 0.42 0.45 0.49 0.53 0.59 0.64 0.67 0.74 0.83 0.86 0.88 0.93 0.95 0.97 1.00 1.07
0.23 0.21 0.21 0.24 0.23 0.25 0.29 0.32 0.35 0.33 0.31 0.30 0.30 0.30 0.30 0.30 0.31 0.29 0.28 0.29 0.31 0.34 0.35 0.35 0.36 0.39 0.43 0.44 0.45 0.50 0.65 0.70 0.68 0.68 0.72 0.80 0.83 0.86 0.94 1.01 1.09 1.14 1.14
0.26 0.24 0.23 0.25 0.26 0.27 0.29 0.34 0.39 0.40 0.37 0.34 0.33 0.35 0.36 0.34 0.35 0.35 0.35 0.36 0.37 0.38 0.40 0.41 0.40 0.41 0.45 0.48 0.49 0.55 0.64 0.64 0.66 0.73 0.75 0.76 0.81 0.85 0.93 1.05 1.10 1.17 1.21

GEFSGL_prec_meanprecacc_264.txt.gz
Total_Precipitation_Accumulation
1.06 1.08 0.96 0.94 0.93 0.92 0.90 0.94 1.02 1.09 1.18 1.23 1.27 1.30 1.31 1.39 1.45 1.54 1.67 1.82 1.85 1.86 1.76 1.78 1.90 1.97 2.15 2.20 2.18 2.14 2.12 2.03 1.88 1.78 1.52 1.31 1.29 1.36 1.43 1.35 1.37 1.37 1.21
1.14 1.06 0.99 1.03 1.04 1.06 1.02 0.96 0.99 1.04 1.03 1.12 1.22 1.19 1.18 1.23 1.32 1.42 1.51 1.57 1.67 1.63 1.54 1.55 1.67 1.74 1.89 2.01 2.11 2.03 2.03 1.99 1.98 1.91 1.68 1.47 1.40 1.40 1.46 1.42 1.30 1.28 1.27
1.16 1.15 1.04 0.95 0.97 1.00 0.99 0.92 0.87 0.90 0.93 1.04 1.18 1.29 1.21 1.11 1.20 1.30 1.33 1.36 1.37 1.32 1.31 1.36 1.42 1.50 1.63 1.75 1.85 1.94 1.95 1.88 1.98 1.95 1.74 1.54 1.41 1.35 1.39 1.36 1.31 1.37 1.27
1.22 1.18 1.11 1.04 1.06 0.98 0.89 0.86 0.84 0.79 0.75 0.80 0.95 1.07 1.12 1.08 1.05 1.06 1.09 1.25 1.25 1.16 1.07 1.06 1.09 1.13 1.26 1.40 1.51 1.66 1.82 1.94 2.02 2.03 1.88 1.62 1.43 1.37 1.43 1.47 1.47 1.40 1.41
1.29 1.28 1.18 1.11 1.01 0.93 0.85 0.76 0.77 0.68 0.65 0.71 0.87 1.02 1.07 1.07 1.10 1.10 1.03 1.07 1.13 1.14 1.07 0.96 0.89 0.89 0.99 1.08 1.18 1.44 1.65 1.81 1.95 2.02 1.93 1.75 1.57 1.47 1.42 1.41 1.50 1.60 1.60
1.09 1.13 1.19 1.15 0.98 0.87 0.77 0.69 0.66 0.65 0.64 0.64 0.73 0.87 1.00 0.97 1.14 1.19 1.11 1.02 1.02 1.02 1.02 1.01 0.99 0.95 0.83 0.79 0.85 1.02 1.27 1.49 1.67 1.80 1.84 1.69 1.51 1.47 1.51 1.51 1.51 1.58 1.63
0.93 0.96 1.01 1.01 0.86 0.79 0.68 0.61 0.59 0.59 0.61 0.61 0.67 0.80 0.93 1.06 1.10 0.97 1.05 1.06 1.01 1.01 0.98 0.97 1.01 0.99 1.03 0.92 0.87 0.85 0.88 1.06 1.32 1.53 1.57 1.53 1.58 1.51 1.46 1.42 1.40 1.40 1.41
0.77 0.78 0.79 0.81 0.76 0.69 0.59 0.56 0.57 0.59 0.63 0.63 0.65 0.69 0.77 0.97 1.04 0.92 1.09 1.10 1.10 1.09 1.05 1.05 1.10 1.12 1.07 1.19 1.16 1.05 0.98 0.97 1.07 1.03 1.13 1.42 1.54 1.56 1.54 1.55 1.58 1.48 1.40
0.55 0.63 0.67 0.69 0.67 0.62 0.56 0.62 0.67 0.65 0.66 0.64 0.60 0.60 0.63 0.73 0.84 0.81 0.94 1.07 1.17 1.17 1.06 1.04 1.09 1.10 1.30 1.34 1.23 1.19 1.11 1.05 1.20 1.22 1.24 1.31 1.39 1.40 1.39 1.47 1.53 1.48 1.42
0.37 0.45 0.54 0.60 0.63 0.65 0.75 0.82 0.84 0.79 0.71 0.63 0.60 0.57 0.58 0.60 0.74 0.62 0.73 0.88 1.07 1.20 1.14 1.07 1.22 1.18 1.19 1.14 1.09 1.26 1.21 1.10 1.01 0.98 0.99 1.05 1.08 1.14 1.21 1.24 1.38 1.42 1.35
0.23 0.29 0.41 0.58 0.67 0.76 0.88 0.91 0.88 0.81 0.69 0.62 0.59 0.57 0.55 0.61 0.77 0.70 0.75 0.83 0.97 1.08 1.11 1.10 1.06 1.15 0.98 0.94 0.99 1.12 1.26 1.21 1.15 1.16 1.08 1.03 1.01 1.01 0.97 1.03 1.18 1.28 1.31
0.26 0.27 0.35 0.47 0.61 0.77 0.88 0.86 0.84 0.84 0.76 0.67 0.64 0.63 0.64 0.73 0.78 0.78 0.77 0.82 0.89 0.97 0.96 0.87 0.86 0.95 0.81 0.76 0.75 0.88 1.07 1.10 1.08 1.13 1.10 1.02 0.97 0.94 0.92 0.93 1.01 1.10 1.13
0.27 0.23 0.25 0.33 0.48 0.66 0.76 0.77 0.78 0.79 0.76 0.73 0.67 0.64 0.65 0.71 0.82 0.93 0.80 0.69 0.68 0.75 0.79 0.79 0.72 0.69 0.67 0.62 0.66 0.76 0.83 0.96 1.08 1.10 1.00 0.92 0.92 0.95 0.96 0.95 0.92 0.96 1.00
0.23 0.24 0.22 0.23 0.28 0.37 0.45 0.52 0.60 0.64 0.65 0.66 0.66 0.66 0.67 0.67 0.66 0.75 0.77 0.68 0.61 0.60 0.59 0.53 0.51 0.54 0.59 0.59 0.60 0.61 0.67 0.89 1.07 1.05 0.95 0.89 0.90 0.95 1.02 1.05 1.03 0.97 0.98
0.23 0.24 0.25 0.26 0.29 0.31 0.34 0.37 0.41 0.44 0.54 0.61 0.61 0.63 0.61 0.61 0.63 0.71 0.71 0.71 0.73 0.74 0.74 0.63 0.57 0.56 0.57 0.59 0.61 0.64 0.75 0.87 0.98 0.93 0.93 0.90 0.90 0.97 1.02 1.07 1.15 1.12 1.05
0.21 0.21 0.20 0.22 0.25 0.26 0.29 0.31 0.34 0.34 0.41 0.45 0.46 0.46 0.44 0.51 0.60 0.60 0.62 0.64 0.68 0.74 0.77 0.74 0.73 0.72 0.70 0.69 0.67 0.65 0.66 0.74 0.82 0.89 0.90 0.90 0.90 0.91 0.93 0.97 1.05 1.10 1.08
0.20 0.20 0.20 0.19 0.22 0.25 0.25 0.27 0.30 0.30 0.28 0.28 0.32 0.35 0.36 0.39 0.42 0.45 0.52 0.59 0.62 0.69 0.70 0.69 0.69 0.67 0.66 0.65 0.63 0.62 0.61 0.62 0.69 0.79 0.89 0.96 0.98 0.98 0.97 0.95 0.94 0.96 0.94
0.23 0.25 0.25 0.26 0.26 0.24 0.25 0.29 0.32 0.33 0.29 0.22 0.23 0.28 0.31 0.35 0.36 0.37 0.39 0.43 0.43 0.48 0.55 0.60 0.61 0.60 0.59 0.59 0.56 0.54 0.54 0.56 0.60 0.66 0.75 0.87 1.02 1.11 1.12 1.09 1.05 1.04 1.01
0.22 0.23 0.25 0.29 0.29 0.29 0.30 0.34 0.34 0.32 0.29 0.26 0.24 0.24 0.30 0.34 0.37 0.39 0.37 0.33 0.32 0.33 0.37 0.43 0.46 0.46 0.47 0.48 0.50 0.52 0.53 0.54 0.56 0.60 0.64 0.69 0.81 0.97 1.07 1.12 1.19 1.28 1.25
0.24 0.27 0.27 0.28 0.30 0.33 0.32 0.32 0.30 0.29 0.27 0.25 0.24 0.25 0.31 0.34 0.33 0.31 0.31 0.33 0.35 0.37 0.38 0.39 0.41 0.42 0.44 0.47 0.49 0.50 0.51 0.52 0.54 0.57 0.59 0.64 0.73 0.83 0.93 1.02 1.08 1.16 1.22
0.26 0.27 0.29 0.28 0.25 0.27 0.28 0.28 0.28 0.26 0.25 0.23 0.22 0.23 0.28 0.31 0.33 0.31 0.31 0.31 0.33 0.36 0.37 0.38 0.39 0.41 0.42 0.46 0.56 0.60 0.57 0.54 0.55 0.60 0.67 0.71 0.75 0.80 0.84 0.92 0.98 1.05 1.11
0.28 0.26 0.23 0.23 0.25 0.25 0.26 0.27 0.29 0.32 0.31 0.28 0.27 0.26 0.28 0.29 0.31 0.30 0.29 0.29 0.30 0.33 0.35 0.38 0.38 0.37 0.39 0.44 0.54 0.65 0.71 0.68 0.64 0.67 0.74 0.79 0.81 0.83 0.87 0.93 0.99 1.05 1.08
0.27 0.26 0.25 0.24 0.24 0.26 0.29 0.29 0.30 0.31 0.33 0.32 0.33 0.32 0.30 0.29 0.28 0.27 0.28 0.30 0.31 0.32 0.35 0.38 0.39 0.39 0.41 0.44 0.50 0.58 0.64 0.71 0.76 0.80 0.85 0.88 0.89 0.90 0.92 0.96 0.99 1.06 1.09
0.26 0.23 0.24 0.27 0.28 0.30 0.31 0.32 0.32 0.31 0.32 0.33 0.32 0.32 0.31 0.31 0.30 0.27 0.27 0.30 0.33 0.33 0.35 0.39 0.41 0.42 0.45 0.48 0.49 0.53 0.57 0.63 0.67 0.70 0.77 0.86 0.89 0.90 0.94 0.97 0.99 1.02 1.09
0.28 0.25 0.26 0.28 0.28 0.30 0.33 0.36 0.40 0.37 0.34 0.32 0.31 0.31 0.31 0.31 0.32 0.30 0.29 0.30 0.33 0.36 0.36 0.36 0.38 0.42 0.47 0.49 0.51 0.55 0.70 0.74 0.71 0.71 0.76 0.84 0.87 0.89 0.95 1.03 1.11 1.15 1.16
0.31 0.29 0.28 0.29 0.30 0.31 0.33 0.38 0.42 0.44 0.41 0.37 0.37 0.38 0.38 0.36 0.36 0.36 0.35 0.36 0.38 0.39 0.42 0.43 0.43 0.44 0.48 0.52 0.54 0.60 0.70 0.70 0.71 0.77 0.79 0.80 0.85 0.88 0.96 1.08 1.13 1.19 1.24

GEFSGL_prec_meanprecacc_270.txt.gz
Total_Precipitation_Accumulation
1.09 1.10 0.97 0.95 0.96 0.96 0.94 0.97 1.04 1.11 1.21 1.25 1.29 1.31 1.32 1.40 1.46 1.56 1.69 1.83 1.85 1.87 1.77 1.79 1.91 1.98 2.17 2.21 2.19 2.16 2.14 2.05 1.90 1.79 1.55 1.33 1.31 1.38 1.44 1.36 1.38 1.38 1.22
1.18 1.09 1.01 1.04 1.06 1.09 1.04 1.00 1.03 1.07 1.06 1.14 1.24 1.21 1.20 1.25 1.33 1.43 1.53 1.58 1.67 1.64 1.54 1.56 1.67 1.75 1.90 2.01 2.12 2.03 2.04 2.00 1.99 1.92 1.69 1.50 1.42 1.41 1.47 1.43 1.31 1.29 1.28
1.19 1.19 1.07 0.97 0.99 1.02 1.01 0.94 0.90 0.92 0.95 1.06 1.20 1.31 1.22 1.12 1.21 1.30 1.34 1.36 1.38 1.33 1.31 1.37 1.42 1.51 1.64 1.75 1.85 1.94 1.96 1.89 1.99 1.96 1.75 1.56 1.43 1.37 1.39 1.36 1.32 1.37 1.29
1.25 1.20 1.13 1.06 1.08 1.00 0.92 0.89 0.87 0.82 0.77 0.82 0.98 1.09 1.13 1.09 1.06 1.07 1.11 1.26 1.26 1.17 1.08 1.07 1.09 1.13 1.27 1.41 1.52 1.67 1.82 1.95 2.02 2.04 1.88 1.63 1.44 1.38 1.43 1.48 1.47 1.40 1.42
1.31 1.30 1.21 1.14 1.05 0.97 0.87 0.79 0.80 0.70 0.67 0.73 0.89 1.04 1.08 1.08 1.11 1.11 1.05 1.09 1.15 1.16 1.08 0.97 0.89 0.89 1.00 1.09 1.18 1.45 1.65 1.82 1.96 2.02 1.94 1.75 1.57 1.48 1.42 1.42 1.51 1.60 1.61
1.11 1.14 1.21 1.18 1.01 0.90 0.80 0.71 0.69 0.67 0.65 0.66 0.75 0.90 1.02 0.98 1.16 1.21 1.13 1.04 1.04 1.04 1.03 1.01 1.00 0.95 0.84 0.80 0.86 1.03 1.28 1.49 1.68 1.81 1.84 1.69 1.52 1.48 1.51 1.51 1.51 1.58 1.63
0.95 0.97 1.02 1.03 0.88 0.81 0.70 0.63 0.62 0.62 0.63 0.63 0.69 0.82 0.96 1.09 1.13 1.00 1.07 1.07 1.03 1.03 0.99 0.99 1.02 1.00 1.05 0.93 0.87 0.86 0.89 1.07 1.32 1.54 1.58 1.53 1.59 1.52 1.48 1.43 1.41 1.41 1.42
0.78 0.79 0.80 0.82 0.78 0.71 0.61 0.58 0.59 0.62 0.66 0.66 0.68 0.73 0.81 1.01 1.08 0.94 1.12 1.13 1.11 1.10 1.07 1.07 1.11 1.14 1.09 1.21 1.17 1.06 0.98 0.97 1.08 1.03 1.14 1.43 1.56 1.57 1.57 1.58 1.61 1.51 1.43
0.57 0.64 0.68 0.70 0.68 0.63 0.58 0.65 0.69 0.67 0.67 0.67 0.63 0.64 0.67 0.77 0.88 0.83 0.96 1.08 1.18 1.18 1.07 1.05 1.10 1.12 1.32 1.37 1.25 1.20 1.12 1.06 1.20 1.22 1.25 1.32 1.40 1.41 1.41 1.49 1.54 1.50 1.43
0.40 0.46 0.55 0.61 0.64 0.66 0.77 0.84 0.85 0.81 0.74 0.66 0.62 0.60 0.60 0.62 0.78 0.65 0.74 0.90 1.08 1.20 1.14 1.08 1.24 1.19 1.21 1.17 1.10 1.27 1.22 1.10 1.02 0.98 0.99 1.05 1.08 1.14 1.22 1.24 1.39 1.42 1.35
0.24 0.31 0.43 0.60 0.68 0.77 0.90 0.93 0.90 0.83 0.72 0.65 0.62 0.58 0.56 0.63 0.80 0.73 0.77 0.84 0.97 1.09 1.11 1.11 1.07 1.16 0.99 0.95 1.00 1.13 1.28 1.22 1.16 1.17 1.09 1.03 1.01 1.01 0.98 1.04 1.19 1.29 1.32
0.28 0.29 0.37 0.50 0.64 0.79 0.90 0.89 0.87 0.87 0.79 0.69 0.66 0.64 0.65 0.73 0.79 0.81 0.80 0.83 0.91 0.99 0.97 0.88 0.87 0.96 0.82 0.78 0.76 0.89 1.08 1.11 1.09 1.14 1.11 1.03 0.97 0.94 0.93 0.94 1.02 1.11 1.14
0.29 0.25 0.27 0.36 0.50 0.68 0.77 0.79 0.80 0.80 0.77 0.74 0.68 0.65 0.66 0.73 0.83 0.96 0.83 0.72 0.69 0.76 0.80 0.80 0.74 0.70 0.69 0.63 0.67 0.78 0.84 0.97 1.09 1.11 1.01 0.93 0.93 0.95 0.96 0.96 0.93 0.97 1.01
0.26 0.27 0.25 0.25 0.31 0.40 0.48 0.54 0.62 0.67 0.67 0.67 0.67 0.67 0.68 0.69 0.68 0.77 0.80 0.72 0.64 0.61 0.60 0.54 0.52 0.55 0.59 0.60 0.60 0.62 0.68 0.90 1.08 1.05 0.96 0.90 0.91 0.96 1.04 1.06 1.04 0.98 0.99
0.26 0.28 0.29 0.30 0.33 0.35 0.37 0.41 0.45 0.48 0.58 0.64 0.63 0.65 0.64 0.63 0.65 0.73 0.73 0.72 0.74 0.75 0.75 0.64 0.58 0.57 0.57 0.60 0.61 0.66 0.77 0.88 0.99 0.94 0.94 0.90 0.91 0.98 1.03 1.08 1.16 1.14 1.06
0.24 0.24 0.24 0.25 0.29 0.30 0.32 0.36 0.39 0.40 0.46 0.49 0.49 0.49 0.46 0.52 0.61 0.61 0.62 0.65 0.70 0.76 0.78 0.75 0.74 0.73 0.71 0.70 0.69 0.66 0.67 0.75 0.84 0.90 0.91 0.91 0.91 0.91 0.93 0.98 1.06 1.11 1.09
0.23 0.24 0.24 0.23 0.26 0.29 0.30 0.32 0.35 0.35 0.32 0.31 0.34 0.37 0.37 0.40 0.43 0.46 0.53 0.60 0.64 0.71 0.71 0.70 0.70 0.68 0.67 0.67 0.65 0.63 0.62 0.63 0.71 0.81 0.91 0.98 1.00 0.99 0.98 0.95 0.94 0.97 0.95
0.26 0.30 0.30 0.31 0.32 0.29 0.30 0.33 0.35 0.36 0.31 0.24 0.25 0.29 0.32 0.36 0.37 0.37 0.40 0.44 0.44 0.49 0.56 0.62 0.63 0.62 0.61 0.61 0.59 0.57 0.57 0.59 0.64 0.69 0.78 0.90 1.04 1.14 1.14 1.11 1.07 1.06 1.03
0.26 0.28 0.30 0.34 0.34 0.33 0.34 0.38 0.37 0.34 0.31 0.27 0.25 0.25 0.31 0.35 0.38 0.40 0.38 0.34 0.33 0.34 0.39 0.45 0.48 0.48 0.50 0.51 0.53 0.56 0.57 0.58 0.60 0.64 0.68 0.73 0.84 0.99 1.09 1.15 1.21 1.30 1.27
0.27 0.31 0.32 0.32 0.35 0.37 0.36 0.35 0.34 0.32 0.30 0.27 0.26 0.27 0.32 0.35 0.34 0.32 0.32 0.33 0.36 0.38 0.38 0.40 0.42 0.43 0.46 0.48 0.51 0.52 0.55 0.56 0.59 0.61 0.63 0.68 0.76 0.86 0.96 1.04 1.10 1.18 1.23
0.30 0.31 0.33 0.32 0.29 0.31 0.32 0.31 0.31 0.30 0.28 0.24 0.23 0.25 0.29 0.32 0.34 0.32 0.31 0.32 0.34 0.36 0.37 0.38 0.40 0.42 0.44 0.48 0.58 0.63 0.60 0.58 0.60 0.65 0.72 0.75 0.78 0.84 0.88 0.96 1.01 1.07 1.13
0.33 0.30 0.27 0.27 0.28 0.28 0.30 0.31 0.32 0.35 0.34 0.30 0.28 0.27 0.29 0.30 0.31 0.31 0.30 0.29 0.30 0.33 0.36 0.39 0.38 0.38 0.40 0.45 0.56 0.68 0.75 0.72 0.68 0.72 0.80 0.84 0.85 0.87 0.91 0.97 1.02 1.09 1.11
0.30 0.31 0.30 0.29 0.29 0.30 0.32 0.32 0.33 0.34 0.35 0.34 0.34 0.33 0.31 0.29 0.28 0.27 0.29 0.31 0.31 0.32 0.35 0.39 0.40 0.40 0.41 0.45 0.52 0.60 0.67 0.74 0.79 0.84 0.90 0.93 0.94 0.94 0.97 1.00 1.02 1.10 1.13
0.28 0.26 0.28 0.31 0.34 0.38 0.38 0.38 0.37 0.35 0.36 0.35 0.33 0.33 0.32 0.32 0.30 0.27 0.27 0.31 0.34 0.33 0.36 0.39 0.42 0.43 0.46 0.48 0.50 0.54 0.59 0.65 0.70 0.74 0.82 0.91 0.93 0.94 0.98 1.01 1.02 1.06 1.13
0.30 0.27 0.28 0.31 0.32 0.35 0.38 0.43 0.48 0.46 0.43 0.40 0.35 0.33 0.32 0.32 0.33 0.31 0.30 0.31 0.33 0.36 0.37 0.37 0.39 0.43 0.48 0.51 0.52 0.57 0.72 0.77 0.75 0.74 0.79 0.89 0.92 0.94 1.00 1.07 1.15 1.19 1.19
0.33 0.31 0.30 0.32 0.33 0.34 0.37 0.42 0.48 0.51 0.48 0.44 0.42 0.42 0.42 0.39 0.39 0.38 0.37 0.37 0.39 0.40 0.43 0.44 0.44 0.46 0.50 0.54 0.56 0.63 0.73 0.72 0.74 0.81 0.83 0.85 0.91 0.94 1.01 1.12 1.16 1.23 1.27

GEFSGL_prec_meanprecacc_276.txt.gz
Total_Precipitation_Accumulation
1.14 1.14 1.01 0.99 1.01 1.00 0.98 0.99 1.05 1.12 1.22 1.26 1.30 1.33 1.34 1.42 1.47 1.57 1.70 1.84 1.86 1.88 1.77 1.81 1.92 2.00 2.19 2.23 2.20 2.17 2.15 2.05 1.91 1.81 1.57 1.36 1.34 1.40 1.47 1.37 1.40 1.41 1.25
1.23 1.14 1.05 1.09 1.11 1.13 1.09 1.04 1.07 1.10 1.09 1.16 1.26 1.22 1.21 1.25 1.34 1.44 1.53 1.59 1.68 1.65 1.55 1.57 1.68 1.76 1.91 2.02 2.13 2.04 2.04 2.01 1.99 1.93 1.71 1.51 1.44 1.43 1.48 1.44 1.32 1.30 1.29
1.25 1.25 1.12 1.02 1.04 1.06 1.06 0.99 0.96 0.97 1.00 1.11 1.22 1.32 1.23 1.12 1.22 1.31 1.35 1.37 1.38 1.33 1.32 1.37 1.43 1.51 1.64 1.75 1.86 1.95 1.96 1.90 1.99 1.96 1.76 1.57 1.44 1.38 1.40 1.38 1.32 1.38 1.30
1.30 1.26 1.20 1.13 1.15 1.07 0.99 0.95 0.92 0.88 0.82 0.88 1.02 1.13 1.16 1.11 1.07 1.08 1.11 1.27 1.26 1.17 1.08 1.07 1.10 1.14 1.27 1.41 1.53 1.67 1.83 1.95 2.02 2.04 1.89 1.64 1.45 1.39 1.44 1.48 1.48 1.41 1.43
1.35 1.34 1.25 1.18 1.09 1.01 0.92 0.85 0.85 0.76 0.71 0.77 0.93 1.08 1.12 1.12 1.13 1.13 1.06 1.10 1.16 1.17 1.09 0.97 0.90 0.91 1.01 1.10 1.19 1.46 1.66 1.82 1.96 2.03 1.95 1.76 1.58 1.48 1.43 1.43 1.51 1.61 1.62
1.13 1.17 1.23 1.20 1.04 0.92 0.82 0.75 0.72 0.70 0.70 0.70 0.78 0.93 1.05 1.01 1.18 1.23 1.15 1.05 1.06 1.05 1.05 1.03 1.02 0.97 0.85 0.81 0.87 1.04 1.29 1.50 1.69 1.82 1.85 1.70 1.52 1.48 1.52 1.52 1.52 1.59 1.65
0.98 1.01 1.05 1.05 0.90 0.83 0.73 0.66 0.64 0.64 0.67 0.66 0.72 0.84 0.98 1.12 1.17 1.03 1.11 1.11 1.05 1.06 1.02 1.02 1.04 1.01 1.05 0.94 0.88 0.87 0.90 1.08 1.33 1.55 1.58 1.53 1.59 1.52 1.48 1.44 1.42 1.42 1.44
0.81 0.84 0.83 0.84 0.80 0.74 0.63 0.60 0.61 0.64 0.68 0.69 0.72 0.77 0.85 1.07 1.15 1.01 1.19 1.20 1.18 1.15 1.11 1.11 1.14 1.16 1.10 1.22 1.18 1.07 0.99 0.98 1.08 1.04 1.14 1.43 1.56 1.58 1.58 1.59 1.63 1.53 1.45
0.62 0.69 0.72 0.74 0.71 0.67 0.61 0.68 0.72 0.70 0.70 0.69 0.67 0.67 0.70 0.81 0.92 0.88 1.01 1.13 1.23 1.23 1.11 1.09 1.13 1.14 1.34 1.39 1.26 1.21 1.13 1.07 1.21 1.23 1.26 1.33 1.41 1.42 1.42 1.50 1.55 1.51 1.44
0.45 0.51 0.58 0.65 0.68 0.71 0.82 0.89 0.90 0.85 0.76 0.68 0.64 0.61 0.62 0.64 0.80 0.67 0.76 0.91 1.10 1.23 1.17 1.10 1.27 1.22 1.24 1.19 1.12 1.28 1.24 1.12 1.03 0.99 1.00 1.06 1.09 1.15 1.22 1.25 1.40 1.43 1.36
0.29 0.35 0.46 0.62 0.71 0.80 0.94 0.96 0.93 0.87 0.76 0.67 0.63 0.60 0.58 0.65 0.81 0.75 0.79 0.86 0.99 1.10 1.12 1.12 1.08 1.18 1.02 0.98 1.02 1.15 1.30 1.24 1.17 1.18 1.10 1.04 1.02 1.01 0.98 1.04 1.19 1.29 1.32
0.33 0.34 0.40 0.52 0.67 0.83 0.95 0.93 0.92 0.91 0.83 0.73 0.69 0.66 0.67 0.76 0.82 0.83 0.82 0.85 0.93 1.00 0.98 0.89 0.88 0.97 0.83 0.79 0.78 0.91 1.10 1.13 1.11 1.16 1.12 1.04 0.98 0.95 0.94 0.94 1.03 1.11 1.14
0.31 0.29 0.30 0.38 0.53 0.71 0.80 0.82 0.83 0.85 0.81 0.77 0.72 0.67 0.68 0.75 0.86 0.99 0.86 0.75 0.71 0.78 0.81 0.81 0.74 0.71 0.69 0.64 0.68 0.79 0.85 0.98 1.10 1.12 1.02 0.94 0.94 0.97 0.98 0.96 0.93 0.98 1.02
0.27 0.28 0.28 0.28 0.33 0.43 0.52 0.58 0.66 0.70 0.70 0.70 0.71 0.70 0.71 0.71 0.71 0.81 0.85 0.76 0.66 0.63 0.62 0.55 0.53 0.55 0.60 0.60 0.61 0.63 0.69 0.92 1.09 1.07 0.97 0.91 0.93 0.97 1.05 1.07 1.05 0.99 1.00
0.27 0.29 0.30 0.33 0.36 0.39 0.42 0.45 0.50 0.53 0.62 0.68 0.67 0.70 0.69 0.68 0.70 0.78 0.78 0.76 0.77 0.77 0.77 0.66 0.59 0.57 0.58 0.60 0.62 0.66 0.77 0.89 1.01 0.97 0.97 0.93 0.93 1.00 1.05 1.10 1.18 1.15 1.07
0.25 0.26 0.25 0.28 0.32 0.34 0.38 0.41 0.45 0.45 0.53 0.55 0.55 0.54 0.51 0.58 0.66 0.65 0.66 0.68 0.72 0.78 0.79 0.75 0.74 0.73 0.72 0.70 0.69 0.67 0.67 0.76 0.84 0.92 0.93 0.94 0.93 0.94 0.95 1.00 1.08 1.13 1.11
0.24 0.25 0.26 0.25 0.29 0.33 0.34 0.38 0.42 0.41 0.38 0.36 0.40 0.43 0.42 0.44 0.46 0.49 0.55 0.62 0.66 0.73 0.72 0.71 0.71 0.69 0.67 0.67 0.65 0.64 0.63 0.64 0.72 0.82 0.92 0.99 1.02 1.02 1.02 0.99 0.99 1.01 0.98
0.28 0.31 0.32 0.33 0.34 0.32 0.34 0.38 0.40 0.40 0.36 0.28 0.29 0.33 0.35 0.39 0.39 0.40 0.42 0.47 0.47 0.50 0.58 0.64 0.64 0.64 0.62 0.62 0.60 0.58 0.58 0.60 0.65 0.71 0.80 0.91 1.06 1.16 1.17 1.15 1.11 1.11 1.09
0.28 0.30 0.32 0.35 0.36 0.35 0.37 0.42 0.41 0.39 0.35 0.31 0.28 0.29 0.34 0.38 0.42 0.44 0.42 0.37 0.35 0.36 0.40 0.47 0.50 0.50 0.51 0.52 0.54 0.57 0.59 0.60 0.61 0.65 0.69 0.75 0.86 1.02 1.13 1.18 1.24 1.34 1.31
0.29 0.33 0.34 0.34 0.36 0.39 0.38 0.38 0.38 0.38 0.36 0.33 0.31 0.32 0.37 0.40 0.38 0.37 0.37 0.38 0.40 0.41 0.40 0.42 0.44 0.45 0.48 0.51 0.53 0.54 0.56 0.58 0.60 0.63 0.65 0.70 0.78 0.88 0.98 1.07 1.13 1.21 1.26
0.31 0.32 0.35 0.33 0.31 0.33 0.34 0.34 0.35 0.34 0.32 0.30 0.29 0.32 0.37 0.39 0.39 0.37 0.36 0.36 0.39 0.41 0.40 0.41 0.42 0.44 0.46 0.50 0.59 0.65 0.62 0.60 0.62 0.67 0.73 0.76 0.80 0.85 0.89 0.98 1.04 1.10 1.16
0.34 0.31 0.28 0.28 0.29 0.30 0.31 0.32 0.35 0.38 0.37 0.33 0.32 0.32 0.36 0.37 0.38 0.37 0.35 0.33 0.34 0.37 0.39 0.42 0.40 0.40 0.41 0.47 0.57 0.69 0.76 0.73 0.69 0.73 0.81 0.85 0.86 0.89 0.93 0.99 1.04 1.11 1.14
0.31 0.32 0.31 0.30 0.30 0.32 0.34 0.33 0.34 0.36 0.38 0.37 0.38 0.36 0.34 0.33 0.32 0.32 0.33 0.35 0.35 0.35 0.38 0.41 0.42 0.42 0.43 0.46 0.53 0.61 0.68 0.75 0.81 0.86 0.92 0.95 0.96 0.96 0.99 1.02 1.05 1.13 1.17
0.29 0.26 0.28 0.32 0.35 0.39 0.39 0.39 0.39 0.37 0.38 0.38 0.37 0.37 0.35 0.35 0.34 0.30 0.30 0.33 0.36 0.35 0.37 0.40 0.43 0.43 0.47 0.49 0.51 0.55 0.59 0.65 0.71 0.75 0.83 0.93 0.96 0.97 1.01 1.04 1.05 1.08 1.16
0.30 0.27 0.28 0.32 0.33 0.35 0.39 0.44 0.50 0.49 0.46 0.43 0.39 0.37 0.36 0.36 0.37 0.34 0.33 0.34 0.36 0.39 0.38 0.38 0.40 0.44 0.48 0.51 0.52 0.57 0.73 0.78 0.76 0.76 0.80 0.90 0.94 0.96 1.03 1.10 1.18 1.22 1.22
0.33 0.31 0.30 0.32 0.34 0.35 0.37 0.42 0.49 0.52 0.51 0.47 0.46 0.46 0.46 0.43 0.42 0.41 0.40 0.40 0.42 0.43 0.45 0.46 0.46 0.47 0.51 0.55 0.58 0.65 0.75 0.74 0.75 0.83 0.85 0.87 0.93 0.96 1.03 1.14 1.19 1.27 1.31